Find Kosmos-942

NORAD ID: 10288 Int'l Des: 1977-079 Owner: GUKOSR Country: SU operational
LEOCIRCULAR

当前视图

正在加载3D地球...

关于 Kosmos-942

正在加载描述...

即将过境

Passes for default location (London). Set your location on the main map for personalized predictions.

高度历史

Loading altitude history...

两行轨道根数

1 10288U 77079D 26149.89950299 -.00000002 00000-0 95320-4 0 9998
2 10288 74.0254 326.8727 0044690 177.9430 253.0493 12.42258844194079
Epoch: May 29, 2026 • Age: 13 hours

当前状态

高度 1539.2 km
速度 7.08 km/s
星下点 -43.57°S, 94.84°W
发射日期 Aug 24, 1977
运行时间 48.7 years
类型 other

技术详情

分类 Payload
质量 60.00 kg
干质量 60.00 kg
总质量 60.00 kg
长度 0.80 m
直径 0.80 m
跨度 0.80 m
形状 Poly
制造商 NPOPM
平台类型 Strela-1 11F625
阶段状态 In Orbit
所有者/国家 GUKOSR/SU

Most Searched